FW8408 Weather Reports


time (UTC)temp
F
wind
direction
speed
knots
gust
knots
rain 1hr
in
rain 24hr
in
rain mn
in
humidity
%
barometer
mb
20260506103043 52 240 5.2 10.4 0.00 0.00 0.00 89 1007.4
20260506102531 52 190 3.5 11.3 0.00 0.00 0.00 89 1007.5
20260506102031 52 205 3.5 11.3 0.00 0.00 0.00 89 1007.5
20260506101551 52 213 3.5 8.7 0.00 0.00 0.00 90 1007.3
20260506101030 52 218 3.5 8.7 0.00 0.00 0.00 90 1007.2
20260506100530 52 146 3.5 8.7 0.00 0.00 0.00 90 1007.1
20260506100039 51 138 2.6 8.7 0.00 0.00 0.00 90 1007.1
20260506095530 51 175 3.5 8.7 0.00 0.00 0.00 90 1007.3
20260506095030 51 223 4.3 8.7 0.00 0.00 0.00 90 1007.4
20260506094553 51 207 2.6 10.4 0.00 0.00 0.00 89 1007.3
20260506094032 51 138 3.5 10.4 0.00 0.00 0.00 89 1007.1
20260506093530 51 197 3.5 10.4 0.00 0.00 0.00 89 1007.1
20260506093039 51 208 3.5 9.6 0.00 0.00 0.00 89 1007.1
20260506092531 51 219 3.5 9.6 0.00 0.00 0.00 89 1007.1
20260506092034 51 234 3.5 9.6 0.00 0.00 0.00 89 1007.1
20260506091539 51 159 2.6 8.7 0.00 0.00 0.00 89 1007.1
20260506091031 51 214 2.6 8.7 0.00 0.00 0.00 89 1007.1
20260506090530 51 230 2.6 8.7 0.00 0.00 0.00 88 1007.1
20260506090043 51 227 3.5 8.7 0.00 0.00 0.00 88 1007.2
20260506085531 52 174 3.5 7.8 0.00 0.00 0.00 88 1007.1
20260506085030 52 246 3.5 8.7 0.00 0.00 0.00 88 1007.1
20260506084550 52 163 3.5 8.7 0.00 0.00 0.00 88 1007.0
20260506084030 52 214 3.5 9.6 0.00 0.00 0.00 88 1007.0
20260506083534 52 198 4.3 9.6 0.00 0.00 0.00 87 1006.9
20260506083043 52 118 4.3 13.9 0.00 0.00 0.00 87 1006.9
20260506082530 52 227 4.3 13.9 0.00 0.00 0.00 87 1006.9
20260506082032 52 182 4.3 7.8 0.00 0.00 0.00 87 1007.0
20260506081540 52 188 2.6 7.0 0.00 0.00 0.00 87 1007.0
20260506081033 52 225 3.5 8.7 0.00 0.00 0.00 87 1007.1
20260506080531 52 231 3.5 10.4 0.00 0.00 0.00 87 1007.1
20260506073048 52 225 2.6 8.7 0.00 0.00 0.00 86 1007.0
20260506072530 52 229 4.3 8.7 0.00 0.00 0.00 86 1006.9
20260506072030 52 169 2.6 9.6 0.00 0.00 0.00 86 1006.8
20260506071600 52 214 3.5 9.6 0.00 0.00 0.00 86 1006.7
20260506071031 51 190 3.5 9.6 0.00 0.00 0.00 86 1006.7
20260506070531 51 178 4.3 9.6 0.00 0.00 0.00 86 1006.7
20260506062031 51 184 4.3 9.6 0.00 0.00 0.00 85 1006.4
20260506061540 51 114 3.5 11.3 0.00 0.00 0.00 85 1006.3
20260506061031 52 207 4.3 11.3 0.00 0.00 0.00 85 1006.4
20260506060533 52 182 4.3 11.3 0.00 0.00 0.00 84 1006.2
20260506051031 53 215 4.3 12.2 0.00 0.00 0.00 83 1006.5
20260506050534 53 234 4.3 13.0 0.00 0.00 0.00 83 1006.5
20260506045030 53 246 5.2 13.9 0.00 0.00 0.00 83 1006.7
20260506044539 53 200 5.2 13.0 0.00 0.00 0.00 83 1006.6
20260506044030 53 170 4.3 11.3 0.00 0.00 0.00 82 1006.5
20260506043534 53 228 4.3 11.3 0.00 0.00 0.00 82 1006.5
20260506043047 54 198 3.5 10.4 0.00 0.00 0.00 82 1006.6
20260506042533 54 170 3.5 10.4 0.00 0.00 0.00 82 1006.5
20260506042036 54 188 4.3 10.4 0.00 0.00 0.00 81 1006.5
20260506041555 54 202 4.3 10.4 0.00 0.00 0.00 81 1006.5
20260506041032 55 196 4.3 10.4 0.00 0.00 0.00 81 1006.5
20260506040533 55 153 3.5 9.6 0.00 0.00 0.00 81 1006.4
20260506040049 55 225 4.3 10.4 0.00 0.00 0.00 82 1006.4
20260506035533 54 196 3.5 10.4 0.00 0.00 0.00 83 1006.2
20260506035036 54 236 3.5 8.7 0.00 0.00 0.00 83 1006.5
20260506034547 54 195 3.5 8.7 0.00 0.00 0.00 82 1006.5
20260506034032 54 202 4.3 8.7 0.00 0.00 0.00 82 1006.4
20260506033537 54 190 3.5 9.6 0.00 0.00 0.00 82 1006.4
20260506033043 54 196 3.5 9.6 0.00 0.00 0.00 82 1006.5
20260506032533 54 203 2.6 10.4 0.00 0.00 0.00 82 1006.4
20260506032033 54 217 4.3 10.4 0.00 0.00 0.00 82 1006.4
20260506031547 54 199 3.5 9.6 0.00 0.00 0.00 82 1006.2
20260506031034 54 202 2.6 9.6 0.00 0.00 0.00 82 1006.4
20260506030535 54 195 4.3 12.2 0.00 0.00 0.00 82 1006.4
20260506030046 54 205 4.3 12.2 0.00 0.00 0.00 81 1006.4
20260506025532 54 213 3.5 9.6 0.00 0.00 0.00 81 1006.5
20260506025032 54 201 3.5 9.6 0.00 0.00 0.00 80 1006.4
20260506024549 55 242 3.5 9.6 0.00 0.00 0.00 80 1006.5
20260506024031 55 215 3.5 9.6 0.00 0.00 0.00 79 1006.5
20260506023533 55 190 2.6 7.8 0.00 0.00 0.00 79 1006.4
20260506023053 56 181 3.5 9.6 0.00 0.00 0.00 78 1006.4
20260506022533 56 130 3.5 9.6 0.00 0.00 0.00 78 1006.5
20260506022033 56 185 4.3 10.4 0.00 0.00 0.00 77 1006.7
20260506021555 56 177 4.3 10.4 0.00 0.00 0.00 77 1006.6
20260506021032 57 197 4.3 8.7 0.00 0.00 0.00 77 1006.6
20260506020532 57 202 3.5 7.8 0.00 0.00 0.00 77 1006.6
20260506020043 57 183 3.5 8.7 0.00 0.00 0.00 76 1006.7
20260506015533 57 168 2.6 8.7 0.00 0.00 0.00 76 1006.6
20260506015035 57 128 2.6 10.4 0.00 0.00 0.00 75 1006.7
20260506014552 58 130 4.3 10.4 0.00 0.00 0.00 75 1006.8
20260506014032 58 159 3.5 10.4 0.00 0.00 0.00 74 1006.8
20260506013615 59 227 3.5 10.4 0.00 0.00 0.00 74 1006.7
20260506013046 59 155 3.5 7.8 0.00 0.00 0.00 74 1006.7
20260506012532 59 214 3.5 8.7 0.00 0.00 0.00 74 1006.6
20260506012035 59 173 2.6 8.7 0.00 0.00 0.00 74 1006.6
20260506011544 59 184 1.7 8.7 0.00 0.00 0.00 74 1006.5
20260506011033 59 216 4.3 8.7 0.00 0.00 0.00 73 1006.5
20260506010535 59 224 3.5 8.7 0.00 0.00 0.00 73 1006.4
20260506010040 59 202 2.6 9.6 0.00 0.00 0.00 73 1006.4
20260506005535 60 194 3.5 9.6 0.00 0.00 0.00 72 1006.3
20260506005032 60 253 3.5 7.8 0.00 0.00 0.00 71 1006.4
20260506004543 61 191 2.6 9.6 0.00 0.00 0.00 70 1006.3
20260506004033 61 220 3.5 12.2 0.00 0.00 0.00 70 1006.4
20260506003532 61 227 4.3 12.2 0.00 0.00 0.00 69 1006.3
20260506003046 62 206 3.5 9.6 0.00 0.00 0.00 69 1006.2
20260506002532 62 196 3.5 9.6 0.00 0.00 0.00 69 1006.1
20260506002032 62 123 2.6 7.8 0.00 0.00 0.00 69 1006.2
20260506001606 62 168 1.7 7.0 0.00 0.00 0.00 69 1005.9
20260506001032 62 188 2.6 7.0 0.00 0.00 0.00 69 1005.8
20260506000535 62 207 1.7 9.6 0.00 0.00 0.00 69 1005.5
20260506000051 62 188 2.6 9.6 0.00 0.00 0.00 70 1005.3
20260505235533 61 117 1.7 6.1 0.00 0.00 0.00 71 1005.1
20260505235033 61 153 0.9 3.5 0.00 0.00 0.00 71 1005.1
20260505234548 61 146 1.7 3.5 0.00 0.00 0.00 71 1005.0
20260505234033 61 165 0.9 3.5 0.00 0.00 0.00 72 1005.1
20260505233532 61 169 0.9 4.3 0.00 0.00 0.00 72 1005.1
20260505233047 61 173 1.7 5.2 0.00 0.00 0.00 72 1005.1
20260505232532 60 182 1.7 6.1 0.00 0.00 0.00 73 1005.3
20260505232032 60 211 1.7 7.8 0.00 0.00 0.00 73 1005.3
20260505231552 59 213 1.7 9.6 0.00 0.00 0.00 74 1005.2
20260505231033 58 219 2.6 12.2 0.00 0.00 0.00 75 1005.6
20260505230532 57 173 5.2 12.2 0.00 0.00 0.00 77 1005.6
20260505230045 56 336 3.5 12.2 0.00 0.00 0.00 77 1004.5
20260505225537 56 219 4.3 13.9 0.00 0.00 0.00 77 1003.7
20260505225032 56 229 5.2 16.5 0.00 0.00 0.00 77 1003.5
20260505224542 56 261 6.1 16.5 0.00 0.00 0.00 77 1003.5
20260505224033 56 225 6.1 13.9 0.00 0.00 0.00 77 1003.3
20260505223533 57 216 5.2 14.8 0.00 0.00 0.00 76 1003.3
20260505223046 57 208 6.1 14.8 0.00 0.00 0.00 77 1003.2
20260505222530 56 167 5.2 13.9 0.00 0.00 0.00 77 1003.1
20260505222031 56 219 6.1 13.9 0.00 0.00 0.00 77 1003.2
20260505221546 56 177 3.5 13.9 0.00 0.00 0.00 77 1003.1
20260505221031 56 200 5.2 13.9 0.00 0.00 0.00 77 1003.0
20260505220530 56 178 7.0 13.9 0.00 0.00 0.00 77 1002.9
20260505220047 57 228 5.2 13.0 0.00 0.00 0.00 77 1002.9
20260505215530 57 145 5.2 11.3 0.00 0.00 0.00 76 1002.7
20260505215030 57 163 5.2 13.0 0.00 0.00 0.00 77 1002.8
20260505214558 57 197 4.3 16.5 0.00 0.00 0.00 77 1002.9
20260505214029 56 227 7.0 16.5 0.00 0.00 0.00 77 1002.9
20260505213533 56 223 5.2 15.6 0.00 0.00 0.00 77 1002.9
20260505213053 56 187 6.1 15.6 0.00 0.00 0.00 77 1002.7
20260505212531 56 216 5.2 13.9 0.00 0.00 0.00 78 1002.8
20260505212031 56 230 6.1 13.9 0.00 0.00 0.00 77 1002.7
20260505211539 56 232 6.1 15.6 0.00 0.00 0.00 77 1002.8
20260505211031 57 146 5.2 15.6 0.00 0.00 0.00 77 1002.7
20260505210530 57 179 6.1 15.6 0.00 0.00 0.00 76 1002.6
20260505210051 58 220 6.1 15.6 0.00 0.00 0.00 76 1002.8
20260505205531 58 238 7.0 16.5 0.00 0.00 0.00 75 1002.7
20260505205030 58 235 7.8 16.5 0.00 0.00 0.00 75 1002.7
20260505204545 59 200 6.1 16.5 0.00 0.00 0.00 74 1002.5
20260505204030 59 191 6.1 15.6 0.00 0.00 0.00 74 1002.9
20260505203530 60 224 7.0 15.6 0.00 0.00 0.00 73 1002.8
20260505203047 60 212 5.2 19.1 0.00 0.00 0.00 73 1002.8
20260505202530 60 200 5.2 19.1 0.00 0.00 0.00 73 1002.8
20260505202031 60 124 5.2 17.4 0.00 0.00 0.00 73 1002.8
20260505201550 60 219 7.0 17.4 0.00 0.00 0.00 73 1002.8
20260505201031 60 155 4.3 13.0 0.00 0.00 0.00 73 1002.9
20260505200531 60 256 5.2 15.6 0.00 0.00 0.00 73 1002.9
20260505200048 60 201 6.1 15.6 0.00 0.00 0.00 72 1003.0
20260505195530 61 198 6.1 13.9 0.00 0.00 0.00 72 1003.0
20260505195030 61 153 5.2 13.0 0.00 0.00 0.00 72 1002.9
20260505194547 60 198 5.2 11.3 0.00 0.00 0.00 73 1003.1
20260505194031 60 245 5.2 19.1 0.00 0.00 0.00 73 1003.2
20260505193530 60 118 7.0 19.1 0.00 0.00 0.00 73 1003.3
20260505193050 60 128 5.2 15.6 0.00 0.00 0.00 73 1003.5
20260505192531 61 166 6.1 15.6 0.00 0.00 0.00 72 1003.5
20260505192031 60 166 6.1 14.8 0.00 0.00 0.00 73 1003.4
20260505191551 60 211 5.2 14.8 0.00 0.00 0.00 73 1003.6
20260505191033 60 186 6.1 14.8 0.00 0.00 0.00 73 1003.8
20260505190533 60 209 6.1 15.6 0.00 0.00 0.00 73 1004.0
20260505190111 61 196 7.0 15.6 0.00 0.00 0.00 72 1004.1
20260505185535 61 167 5.2 13.0 0.00 0.00 0.00 70 1004.1
20260505185033 62 219 4.3 13.9 0.00 0.00 0.00 70 1004.0
20260505184559 62 225 5.2 13.9 0.00 0.00 0.00 69 1004.0
20260505184033 64 226 4.3 13.0 0.00 0.00 0.00 67 1004.2
20260505183535 64 241 4.3 12.2 0.00 0.00 0.00 66 1004.1
20260505183051 65 215 6.1 13.9 0.00 0.00 0.00 65 1004.3
20260505182533 65 155 4.3 13.9 0.00 0.00 0.00 66 1004.2
20260505182032 65 209 4.3 14.8 0.00 0.00 0.00 66 1004.2
20260505181546 65 182 4.3 15.6 0.00 0.00 0.00 66 1004.2
20260505181036 65 219 3.5 15.6 0.00 0.00 0.00 67 1004.2
20260505180535 64 224 4.3 13.0 0.00 0.00 0.00 68 1004.3
20260505180050 64 217 2.6 13.0 0.00 0.00 0.00 69 1004.4
20260505175534 64 184 6.1 14.8 0.00 0.00 0.00 67 1004.4
20260505175033 64 227 4.3 14.8 0.00 0.00 0.00 67 1004.4
20260505174546 64 155 4.3 13.9 0.00 0.00 0.00 68 1004.5
20260505174032 63 184 5.2 13.9 0.00 0.00 0.00 69 1004.6
20260505173532 63 215 5.2 14.8 0.00 0.00 0.00 69 1004.7
20260505173042 63 182 5.2 14.8 0.00 0.00 0.00 69 1004.7
20260505172533 63 193 7.0 13.9 0.00 0.00 0.00 68 1005.0
20260505172032 63 151 6.1 13.9 0.00 0.00 0.00 68 1005.0
20260505171548 64 165 2.6 13.9 0.00 0.00 0.00 68 1004.9
20260505171033 64 225 4.3 13.0 0.00 0.00 0.00 67 1004.8
20260505170533 64 179 5.2 12.2 0.00 0.00 0.00 68 1005.1
20260505170054 64 199 6.1 12.2 0.00 0.00 0.00 67 1005.4
20260505165532 65 228 3.5 13.0 0.00 0.00 0.00 67 1005.4
20260505165032 64 119 5.2 14.8 0.00 0.00 0.00 68 1005.2
20260505164546 64 200 3.5 14.8 0.00 0.00 0.00 69 1005.3
20260505164032 63 172 6.1 12.2 0.00 0.00 0.00 68 1005.3
20260505163533 64 186 5.2 13.0 0.00 0.00 0.00 67 1005.4
20260505163041 64 209 3.5 13.0 0.00 0.00 0.00 68 1005.6
20260505162533 64 203 4.3 12.2 0.00 0.00 0.00 68 1005.8
20260505162034 64 241 4.3 12.2 0.00 0.00 0.00 67 1005.8
20260505161543 64 224 4.3 12.2 0.00 0.00 0.00 67 1005.9
20260505161033 64 152 4.3 12.2 0.00 0.00 0.00 68 1005.9
20260505160531 64 134 3.5 9.6 0.00 0.00 0.00 68 1006.0
20260505153053 61 185 3.5 9.6 0.00 0.00 0.00 72 1006.5
20260505152531 60 175 5.2 9.6 0.00 0.00 0.00 73 1006.6
20260505152031 60 123 4.3 9.6 0.00 0.00 0.00 73 1006.6
20260505151543 60 228 3.5 9.6 0.00 0.00 0.00 73 1006.7
20260505151030 59 131 3.5 10.4 0.00 0.00 0.00 75 1006.6
20260505150534 58 208 3.5 12.2 0.00 0.00 0.00 76 1006.7
20260505140534 60 204 4.3 10.4 0.00 0.00 0.00 73 1006.1
20260505125031 55 225 4.3 10.4 0.00 0.00 0.00 78 1006.4
20260505124603 55 234 2.6 8.7 0.00 0.00 0.00 78 1006.4
20260505124030 55 229 2.6 8.7 0.00 0.00 0.00 78 1006.2
20260505123530 55 205 5.2 10.4 0.00 0.00 0.00 78 1006.3
20260505123104 55 202 4.3 10.4 0.00 0.00 0.00 79 1006.2
20260505122531 54 142 3.5 12.2 0.00 0.00 0.00 79 1006.5
20260505122031 54 222 3.5 12.2 0.00 0.00 0.00 79 1006.4
20260505121540 54 209 4.3 11.3 0.00 0.00 0.00 80 1006.2
20260505121031 53 157 3.5 10.4 0.00 0.00 0.00 80 1006.2
20260505120530 53 202 4.3 10.4 0.00 0.00 0.00 80 1006.6
20260505120051 53 203 3.5 9.6 0.00 0.00 0.00 80 1006.6
20260505115530 53 121 3.5 9.6 0.00 0.00 0.00 81 1006.7
20260505115030 53 128 3.5 9.6 0.00 0.00 0.00 81 1006.7
20260505114554 53 167 3.5 11.3 0.00 0.00 0.00 81 1006.8
20260505114031 53 147 2.6 11.3 0.00 0.00 0.00 82 1006.8
20260505113530 52 200 3.5 9.6 0.00 0.00 0.00 82 1006.8
20260505113050 52 223 4.3 9.6 0.00 0.00 0.00 82 1006.9
20260505112531 52 211 3.5 9.6 0.00 0.00 0.00 82 1006.9
20260505112030 52 229 3.5 9.6 0.00 0.00 0.00 83 1006.8
20260505111541 51 232 2.6 9.6 0.00 0.00 0.00 83 1006.8
20260505111031 51 203 3.5 7.8 0.00 0.00 0.00 83 1006.8
20260505110531 51 186 3.5 11.3 0.00 0.00 0.00 84 1006.7